Rayong, Thailand

5:13 AM +07 on November 24, 2017 (GMT +0700)
U-Taphao International

Weather History for VTBU - August, 2013

Change the Weather History Date:

Wednesday, August 14, 2013

  Actual Average Record
Temperature  
Mean Temperature 80 °F -  
Max Temperature 86 °F 88 °F 93 °F (1999)
Min Temperature 75 °F 79 °F 75 °F (2013)
Cooling Degree Days 16    
Growing Degree Days 30 (Base 50)    
Moisture  
Dew Point 75 °F    
Average Humidity 80    
Maximum Humidity 94    
Minimum Humidity 70    
Precipitation  
Precipitation 0.00 in - - ()
Sea Level Pressure  
Sea Level Pressure 29.72 in    
Wind  
Wind Speed 5 mph ()    
Max Wind Speed 12 mph    
Max Gust Speed -    
Visibility 5.3 miles    
Events Rain , Thunderstorm    
Averages and records for this station are not official NWS values.
T = Trace of Precipitation, MM = Missing Value Source: Averaged Metar Reports

Daily Weather History Graph

Daily Weather History Graph

Search for Another Location

Airport or City:

Trip Planner

Search our weather history database for the weather conditions in past years. The results will help you decide how hot, cold, wet, or windy it might be!

Date:

Astronomy

Aug. 14, 2013 Rise Set
Actual Time 6:02 AM +07 6:35 PM +07
Civil Twilight 5:40 AM +07 6:57 PM +07
Nautical Twilight 5:14 AM +07 7:23 PM +07
Astronomical Twilight 4:48 AM +07 7:49 PM +07
Moon 12:04 PM +07 (8/14) 11:57 PM +07 (8/14)
Length of Visible Light 13h 17m
Length of Day
12h 33m
Waxing Crescent, 47% of the Moon is Illuminated
Aug 14
Waxing Crescent
Aug 14
First Quarter
Aug 21
Full
Aug 28
Last Quarter
Sep 5
New

Hourly Weather History & Observations

Time (+07) Temp. Heat Index Dew Point Humidity Pressure Visibility Wind Dir Wind Speed Gust Speed Precip Events Conditions
12:00 AM 77.0 °F - 75.2 °F 94% 29.74 in 3.7 mi ESE 4.6 mph - N/A Rain Light Rain
12:30 AM 78.8 °F - 75.2 °F 89% 29.71 in 3.7 mi SW 3.5 mph - N/A Rain Light Rain
1:00 AM 77.0 °F - 75.2 °F 94% 29.71 in 3.7 mi Calm Calm - N/A Rain Light Rain
1:30 AM 78.8 °F - 75.2 °F 89% 29.71 in 4.3 mi Calm Calm - N/A Rain Light Rain
2:00 AM 77.0 °F - 75.2 °F 94% 29.71 in 3.7 mi Calm Calm - N/A Rain Light Rain
2:30 AM 77.0 °F - 73.4 °F 89% 29.71 in 4.3 mi Calm Calm - N/A Rain Light Rain
3:00 AM 75.2 °F - 73.4 °F 94% 29.71 in 4.3 mi Calm Calm - N/A Rain Light Rain
4:00 AM 77.0 °F - 73.4 °F 89% 29.71 in 4.3 mi Calm Calm - N/A Rain Light Rain
4:30 AM 77.0 °F - 73.4 °F 89% 29.68 in 5.0 mi Calm Calm - N/A Rain Light Rain
5:00 AM 77.0 °F - 73.4 °F 89% 29.68 in 5.0 mi Calm Calm - N/A Rain Light Rain
5:30 AM 77.0 °F - 73.4 °F 89% 29.68 in 5.0 mi West 3.5 mph - N/A Rain Light Rain
6:00 AM 78.8 °F - 73.4 °F 83% 29.68 in 5.0 mi West 4.6 mph - N/A Rain Light Rain
6:30 AM 78.8 °F - 73.4 °F 83% 29.71 in 5.6 mi West 3.5 mph - N/A Rain Light Rain
7:00 AM 78.8 °F - 73.4 °F 83% 29.71 in 5.6 mi West 4.6 mph - N/A Rain Light Rain
7:30 AM 78.8 °F - 73.4 °F 83% 29.74 in 5.6 mi WSW 4.6 mph - N/A   Mostly Cloudy
8:00 AM 80.6 °F 85.4 °F 73.4 °F 79% 29.74 in 5.6 mi WSW 6.9 mph - N/A   Mostly Cloudy
8:30 AM 82.4 °F 88.2 °F 73.4 °F 74% 29.74 in 6.2 mi WSW 9.2 mph - N/A   Mostly Cloudy
9:00 AM 82.4 °F 88.2 °F 73.4 °F 74% 29.74 in 6.2 mi WSW 11.5 mph - N/A   Mostly Cloudy
9:30 AM 82.4 °F 89.5 °F 75.2 °F 79% 29.77 in 6.2 mi WSW 9.2 mph - N/A   Mostly Cloudy
10:00 AM 82.4 °F 89.5 °F 75.2 °F 79% 29.77 in 6.2 mi West 9.2 mph - N/A   Mostly Cloudy
10:30 AM 84.2 °F 92.3 °F 75.2 °F 74% 29.77 in 6.2 mi West 9.2 mph - N/A   Mostly Cloudy
11:00 AM 84.2 °F 90.9 °F 73.4 °F 70% 29.74 in 6.2 mi WSW 9.2 mph - N/A   Mostly Cloudy
11:30 AM 84.2 °F 90.9 °F 73.4 °F 70% 29.74 in 6.2 mi WSW 11.5 mph - N/A   Mostly Cloudy
12:00 PM 86.0 °F 95.1 °F 75.2 °F 70% 29.74 in 6.2 mi WSW 9.2 mph - N/A   Mostly Cloudy
12:30 PM 86.0 °F 95.1 °F 75.2 °F 70% 29.71 in 6.2 mi West 9.2 mph - N/A   Mostly Cloudy
1:00 PM 84.2 °F 92.3 °F 75.2 °F 74% 29.71 in 6.2 mi West 9.2 mph - N/A   Mostly Cloudy
1:30 PM 84.2 °F 92.3 °F 75.2 °F 74% 29.71 in 6.2 mi West 11.5 mph - N/A   Mostly Cloudy
2:00 PM 86.0 °F 95.1 °F 75.2 °F 70% 29.71 in 6.2 mi WSW 11.5 mph - N/A   Mostly Cloudy
2:30 PM 84.2 °F 90.9 °F 73.4 °F 70% 29.68 in 6.2 mi WSW 11.5 mph - N/A   Mostly Cloudy
3:00 PM 84.2 °F 92.3 °F 75.2 °F 74% 29.68 in 6.2 mi WSW 11.5 mph - N/A   Mostly Cloudy
3:30 PM 84.2 °F 92.3 °F 75.2 °F 74% 29.68 in 6.2 mi SW 11.5 mph - N/A   Mostly Cloudy
4:00 PM 84.2 °F 92.3 °F 75.2 °F 74% 29.68 in 6.2 mi SSW 9.2 mph - N/A   Mostly Cloudy
4:30 PM 86.0 °F 95.1 °F 75.2 °F 70% 29.68 in 6.2 mi SW 9.2 mph - N/A   Mostly Cloudy
5:00 PM 84.2 °F 92.3 °F 75.2 °F 74% 29.68 in 6.2 mi SW 9.2 mph - N/A   Mostly Cloudy
5:30 PM 84.2 °F 92.3 °F 75.2 °F 74% 29.68 in 6.2 mi SSW 9.2 mph - N/A   Mostly Cloudy
6:00 PM 84.2 °F 92.3 °F 75.2 °F 74% 29.68 in 6.2 mi SW 9.2 mph - N/A   Mostly Cloudy
6:30 PM 84.2 °F 92.3 °F 75.2 °F 74% 29.71 in 6.2 mi SSW 6.9 mph - N/A   Mostly Cloudy
7:00 PM 82.4 °F 89.5 °F 75.2 °F 79% 29.71 in 5.6 mi SSW 6.9 mph - N/A   Mostly Cloudy
7:30 PM 82.4 °F 89.5 °F 75.2 °F 79% 29.74 in 5.6 mi SW 6.9 mph - N/A   Mostly Cloudy
8:00 PM 82.4 °F 89.5 °F 75.2 °F 79% 29.74 in 5.6 mi SW 6.9 mph - N/A   Mostly Cloudy
8:30 PM 82.4 °F 89.5 °F 75.2 °F 79% 29.74 in 5.6 mi SSW 6.9 mph - N/A   Mostly Cloudy
9:00 PM 84.2 °F 94.1 °F 77.0 °F 79% 29.77 in 5.6 mi South 9.2 mph - N/A   Mostly Cloudy
9:30 PM 84.2 °F 92.3 °F 75.2 °F 74% 29.77 in 5.6 mi SW 9.2 mph - N/A   Mostly Cloudy
10:00 PM 84.2 °F 94.1 °F 77.0 °F 79% 29.77 in 5.6 mi SSW 6.9 mph - N/A   Mostly Cloudy
10:30 PM 78.8 °F - 75.2 °F 89% 29.80 in 2.5 mi West 11.5 mph - N/A Rain Light Rain Showers
11:00 PM 77.0 °F - 75.2 °F 94% 29.80 in 2.5 mi Calm Calm - N/A Rain , Thunderstorm Light Thunderstorms and Rain
11:30 PM 78.8 °F - 75.2 °F 89% 29.77 in 2.5 mi Calm Calm - N/A Rain , Thunderstorm Light Thunderstorms and Rain